User: anonymous   Login
Location: Caltech
(34.1382°N, 118.1253°W)
Time: 09:36:12
(UTC-07:00)
Language:

ASTRO E2 - Orbit

View from above orbital plane
View from above orbital plane
View from above satellite
View from above satellite

Ground track
Ground track

The orbit data is extracted from the following two-line orbital elements,

1 28773U 05025A   17087.39023764 +.00002053 +00000-0 +10093-3 0  9992
2 28773 031.3827 100.3146 0004905 256.1147 103.8954 15.15613026645085
Epoch (UTC): 28 March 2017 09:21:56
Eccentricity: 0.0004905
inclination: 31.3827°
perigee height: 516 km
apogee height: 522 km
right ascension of ascending node: 100.3146°
argument of perigee: 256.1147°
revolutions per day: 15.15613026
mean anomaly at epoch: 103.8954°
orbit number at epoch: 64508

The dashed part of the orbit path shows where the satellite is in the earth's shadow,  

DLR